Location: Mat�lon
(46.2791°N, 7.1028°E)
Time: 06:19:27
(UTC+00:00)

Cosmos 1428 Rocket - Pass Details

Date: 18 September 2020
Orbit: 947 x 989 km, 82.9° (Epoch: 23 October)

Event Time Altitude Azimuth Distance (km) Brightness Sun altitude
Rises 20:08:57 0° 351° (N) 3,702 8.1 -25.7°
Reaches altitude 10° 20:11:30 10° 352° (N) 2,746 7.4 -26.1°
Maximum altitude 20:17:49 89° 78° (ENE) 982 4.4 -27.0°
Enters shadow 20:18:53 64° 171° (S) 1,073 4.4 -27.1°
